sat.trackr.live / text

‹ back to catalog

STARLINK-35184

NORAD 65506 · 2025-198Q

PAYLOAD ACTIVE UNKNOWN

§ Identity

Operator
Country
US
Launch date
2025-09-05
Launch site
AFETR
Launch vehicle
Mass (kg)
RCS (m²)

Purposes: comms

External: N2YO · Heavens-Above · Gunter

§ Orbital elements

Epoch: 2026-05-25T01:18:52.342272Z

Period
93.85 min
Inclination
53.1590°
Eccentricity
0.0001263
Mean motion
15.34390633 rev/d
Perigee alt
461.9 km
Apogee alt
463.6 km
Semi-major
6,840.9 km
B*
1.0054e-3
RAAN
275.4586°
Arg perigee
68.0282°
Mean anomaly
292.0855°
Rev number
4,032

§ Raw data

STARLINK-351841 65506U 25198Q   26145.05477248  .00033736  00000+0  10054-2 0  99952 65506  53.1590 275.4586 0001263  68.0282 292.0855 15.34390633 40329

JSON: /api/v1/satellites/65506 · /tle

For live sub-satellite position, see the globe view (requires WebGL).

§ Visibility from observer

Set your observer location to see the next 7 days of passes ≥ 10°. The values pass through the URL so the page stays shareable.

No JS? Fill the form by hand. The geolocation button needs JavaScript.